Location: Munderkingen
(48.2395°N, 9.6433°E)
Time: 16:54:59
(UTC+01:00)

ISS - Pass Details

Date: 29 March 2017
Orbit: 399 x 409 km, 51.6° (Epoch: 25 March)

Event Time Altitude Azimuth Distance (km) Brightness Sun altitude
Rises 21:39:38 0° 243° (WSW) 2,307 0.5 -18.5°
Reaches altitude 10° 21:41:42 10° 242° (WSW) 1,452 -0.6 -18.8°
Enters shadow 21:44:52 78° 182° (S) 416 -4.0 -19.3°
